Вернуться в каталог

NIMBUS 2 DEB

АктивенLEO
NORAD 28206·DEBRIS·🇺🇸 United States

Запущен May 15, 1966 с Vandenberg Space Force Base

Loading…

Ближайшие Пролёты (ближайшие 24 часа)

TLE

СвежийSource: Space-Track

Эпоха: Sep 13, 2026, 16:29 UTC

1 28206U 66040U   26256.68746387  .00001108  00000-0  18318-2 0  9997
2 28206 100.3707 152.1910 0041813 164.3910 254.7936 13.49166930103932

Отслеживайте NIMBUS 2 DEB в реальном времени с AllMySat

Download on the App Store